Weather History for Billings, MT

Change the Weather History Date:

Friday, May 9, 2014

  Actual Average Record
Temperature  
Mean Temperature 51 °F 54 °F  
Max Temperature 61 °F 66 °F 86 °F (1987)
Min Temperature 41 °F 42 °F 27 °F (2002)
Degree Days  
Heating Degree Days 14 12  
Month to date heating degree days 150 118  
Since 1 July heating degree days 6932 6495  
Cooling Degree Days 0 0  
Month to date cooling degree days 0 0  
Year to date cooling degree days 0 1  
Growing Degree Days 1 (Base 50)    
Moisture  
Dew Point 38 °F    
Average Humidity 60    
Maximum Humidity 77    
Minimum Humidity 42    
Precipitation  
Precipitation 0.04 in 0.07 in 1.08 in (2011)
Month to date precipitation 0.76 0.58  
Year to date precipitation 6.34 4.26  
Snow  
Snow 0.00 in 0.10 in 5.70 in (1986)
Month to date snowfall 2.1 1.1  
Since 1 July snowfall 103.5 54.1  
Snow Depth 0.00 in    
Sea Level Pressure  
Sea Level Pressure 29.68 in    
Wind  
Wind Speed 8 mph (West)    
Max Wind Speed 28 mph    
Max Gust Speed 34 mph    
Visibility 10 miles    
Events Rain    
T = Trace of Precipitation, MM = Missing Value Source: NWS Daily Summary

Daily Weather History Graph

Daily Weather History Graph

Search for Another Location

Airport:

Trip Planner

Search our weather history database for the weather conditions in past years. The results will help you decide how hot, cold, wet, or windy it might be!

Date:

Astronomy

May. 09, 2014 Rise Set
Actual Time 5:50 AM MDT 8:31 PM MDT
Civil Twilight 5:16 AM MDT 9:06 PM MDT
Nautical Twilight 4:33 AM MDT 9:49 PM MDT
Astronomical Twilight 3:43 AM MDT 10:39 PM MDT
Moon 3:16 PM MDT (5/9) 3:10 AM MDT (5/9)
Length of Visible Light 15h 50m
Length of Day
14h 41m
Waxing Gibbous, 74% of the Moon is Illuminated
May 9
Waxing Gibbous
May 14
Full
May 21
Last Quarter
May 28
New
Jun 5
First Quarter

Hourly Weather History & Observations

Time (MDT) Temp. Windchill Dew Point Humidity Pressure Visibility Wind Dir Wind Speed Gust Speed Precip Events Conditions
12:53 AM 46.9 °F - 34.0 °F 61% 29.75 in 10.0 mi SW 5.8 mph - N/A   Partly Cloudy
1:53 AM 46.0 °F 44.8 °F 34.0 °F 63% 29.73 in 10.0 mi SW 3.5 mph - N/A   Scattered Clouds
2:53 AM 44.1 °F - 34.0 °F 68% 29.71 in 10.0 mi Calm Calm - N/A   Partly Cloudy
3:53 AM 45.0 °F - 34.0 °F 65% 29.70 in 10.0 mi Calm Calm - N/A   Scattered Clouds
4:53 AM 44.1 °F 42.5 °F 33.1 °F 65% 29.68 in 10.0 mi East 3.5 mph - N/A   Scattered Clouds
5:53 AM 42.1 °F - 34.0 °F 73% 29.68 in 10.0 mi Calm Calm - N/A   Scattered Clouds
6:53 AM 46.0 °F - 36.0 °F 68% 29.65 in 10.0 mi Calm Calm - N/A   Mostly Cloudy
7:53 AM 46.0 °F 42.5 °F 35.1 °F 66% 29.66 in 10.0 mi SSW 6.9 mph - N/A   Mostly Cloudy
8:53 AM 48.2 °F - 35.6 °F 62% 29.67 in 10.0 mi South 3.5 mph - N/A   Mostly Cloudy
9:53 AM 51.1 °F - 37.0 °F 59% 29.65 in 10.0 mi SSW 9.2 mph - N/A   Overcast
10:53 AM 57.0 °F - 37.0 °F 47% 29.63 in 10.0 mi WSW 9.2 mph - 0.00 in   Overcast
11:53 AM 57.9 °F - 37.9 °F 47% 29.61 in 10.0 mi NW 11.5 mph - 0.00 in   Overcast
12:53 PM 57.9 °F - 36.0 °F 44% 29.61 in 10.0 mi WSW 8.1 mph - N/A   Overcast
1:53 PM 61.0 °F - 37.9 °F 42% 29.60 in 10.0 mi WNW 8.1 mph - N/A   Overcast
2:53 PM 60.1 °F - 39.0 °F 46% 29.60 in 10.0 mi WNW 6.9 mph - N/A   Overcast
3:53 PM 57.0 °F - 43.0 °F 59% 29.62 in 10.0 mi WNW 11.5 mph - 0.00 in Rain Light Rain
4:53 PM 52.0 °F - 44.1 °F 74% 29.65 in 10.0 mi West 16.1 mph - 0.02 in Rain Light Rain
5:53 PM 50.0 °F - 43.0 °F 77% 29.69 in 10.0 mi West 11.5 mph - 0.01 in Rain Light Rain
6:53 PM 50.0 °F - 43.0 °F 77% 29.68 in 10.0 mi West 12.7 mph - 0.00 in Rain Light Rain
7:53 PM 50.0 °F - 42.1 °F 74% 29.70 in 10.0 mi NNW 20.7 mph 28.8 mph 0.01 in   Overcast
8:53 PM 46.9 °F - 39.0 °F 74% 29.72 in 10.0 mi North 18.4 mph - 0.00 in   Overcast
9:53 PM 46.9 °F - 39.0 °F 74% 29.76 in 10.0 mi WSW 8.1 mph - N/A   Overcast
10:53 PM 46.9 °F - 39.0 °F 74% 29.76 in 10.0 mi NW 9.2 mph - N/A   Overcast
11:53 PM 46.0 °F 41.4 °F 39.0 °F 76% 29.76 in 10.0 mi WNW 9.2 mph - N/A   Overcast